Location: ????????
(48.4751°N, 37.6926°E)
Time: 13:23:47
(UTC+00:00)

COSMOS 2455 - Pass Details

Date: 20 January 2021
Orbit: 901 x 908 km, 67.1° (Epoch: 27 February)

Event Time Altitude Azimuth Distance (km) Brightness Sun altitude
Rises 15:58:08 0° 213° (SSW) 3,520 6.6 -17.7°
Reaches altitude 10° 16:00:38 10° 213° (SSW) 2,584 5.8 -18.1°
Maximum altitude 16:06:38 89° 297° (WNW) 915 2.8 -19.1°
Enters shadow 16:10:49 21° 34° (NE) 1,913 4.2 -19.8°
